sat.trackr.live / text

‹ back to catalog

STARLINK-37989

NORAD 69718 · 2026-147Q

PAYLOAD ACTIVE UNKNOWN

§ Identity

Operator
Country
US
Launch date
2026-06-28
Launch site
AFWTR
Launch vehicle
Mass (kg)
RCS (m²)

Purposes: comms

External: N2YO · Heavens-Above · Gunter

§ Orbital elements

Epoch: 2026-09-20T00:52:01.994016Z

Period
93.90 min
Inclination
97.2861°
Eccentricity
0.0001611
Mean motion
15.33473041 rev/d
Perigee alt
464.4 km
Apogee alt
466.6 km
Semi-major
6,843.6 km
B*
5.6371e-4
RAAN
299.4147°
Arg perigee
121.6436°
Mean anomaly
238.4964°
Rev number
1,416

§ Raw data

STARLINK-379891 69718U 26147Q   26263.03613419  .00018184  00000+0  56371-3 0  99932 69718  97.2861 299.4147 0001611 121.6436 238.4964 15.33473041 14163

JSON: /api/v1/satellites/69718 · /tle

For live sub-satellite position, see the globe view (requires WebGL).

§ Visibility from observer

Set your observer location to see the next 7 days of passes ≥ 10°. The values pass through the URL so the page stays shareable.

No JS? Fill the form by hand. The geolocation button needs JavaScript.